Regional Weather Roundup
Issued by NWS Northern Indiana

Home | Current Version | Previous Version | Graphics & Text | Print | Product List | Glossary On
Versions: 1 2 3 4 5 6 7 8 9 10 11 12 13 14 15 16 17 18 19 20 21 22 23 24 25 26 27 28 29 30 31 32 33 34 35 36 37 38 39 40 41 42 43 44 45 46 47 48 49 50
000
ASUS43 KIWX 261500
RWRIWX

KIWX WEATHER ROUNDUP
NATIONAL WEATHER SERVICE NORTHERN INDIANA
1100 AM EDT MON SEP 26 2016

NOTE: "FAIR" INDICATES FEW OR NO CLOUDS BELOW 12,000 FEET WITH NO
SIGNIFICANT WEATHER AND/OR OBSTRUCTIONS TO VISIBILITY.

* THESE STATIONS ARE NOT UNDER NWS QUALITY CONTROL. THEY ALSO MAY NOT
  REPORT WEATHER SUCH AS PRECIPITATION OR FOG.

INZ001>027-261600-
NORTHERN INDIANA

CITY           SKY/WX    TMP DP  RH WIND       PRES   REMARKS
GARY*            N/A     64  48  55 W14G26    30.02S
SOUTH BEND     CLOUDY    60  54  80 W14       30.00S
ELKHART*       PTSUNNY  N/A N/A N/A W12       29.99R
GOSHEN         CLOUDY    60  54  80 W10       29.99S
ANGOLA*          N/A     61  52  72 W9        29.97S
FORT WAYNE     CLOUDY    60  55  83 W10G20    30.00S

$$
INZ028>050-261600-
CENTRAL INDIANA

CITY           SKY/WX    TMP DP  RH WIND       PRES   REMARKS
LAFAYETTE      PTSUNNY   59  56  89 W14G21    30.07R
MUNCIE*        CLOUDY    61  56  83 W8        30.05R
INDIANAPOLIS   PTSUNNY   61  55  81 W10       30.08R

$$
MIZ043>046-050>051-056>058-064>065-071>073-077>080-261600-
SOUTHWEST LOWER MICHIGAN

CITY           SKY/WX    TMP DP  RH WIND       PRES   REMARKS
BATTLE CREEK   CLOUDY    60  55  83 W10       29.95R
BENTON HARBOR  CLOUDY    63  41  44 W21G26    29.96S
COLDWATER*     CLOUDY    60  56  87 W10       29.96S
HILLSDALE*     CLOUDY    61  55  82 W10G16    29.96S
HOLLAND        CLOUDY    63  46  54 W14G28    29.93R
GRAND RAPIDS   PTSUNNY   60  49  66 W10       29.91R
KALAMAZOO      CLOUDY    60  52  74 W7        29.96R
STURGIS*       PTSUNNY   60  55  83 W8        29.96S
THREE RIVERS*  FAIR      61  55  80 W7        29.97S

$$
OHZ001>008-015>018-024>025-261600-
NORTHWEST OHIO

CITY           SKY/WX    TMP DP  RH WIND       PRES   REMARKS
DEFIANCE       CLOUDY    63  57  81 VRB5      29.97F
FINDLAY        LGT RAIN  62  59  90 W13G18    29.97R
TOLEDO EXPRESS CLOUDY    61  61 100 W12       29.95R
TOLEDO METCALF CLOUDY    62  61  96 SW10      29.96R
LIMA           LGT RAIN  60  60 100 W14       29.99S

$$
AND FOR LAKE MICHIGAN COASTAL AND OPEN LAKE BUOY OBSERVATIONS

STATION/POSITION TEMP    WIND        PRES    VSBY  WAVE
                 AIR SEA DIR/SP/G                  HT/PER
                 (F)     (DEG/KT/KT) (MB)    (MI)  (FT/S)
CALUMET HARBOR    62     230/ 11/ 15 1015.7R
MICHIGAN CITY     61     230/ 21/ 23   N/A
BURNS HARBOR      62     240/ 12/ 14 1016.6R
SAINT JOSEPH      63     280/ 18/ 23 1015.9
SOUTH LAKE BUOY   62 71  260/ 21/ 25 1013.0          5/ 5
4 MI NW BRIDGMAN  64 65  270/ 19/ 27 1014.9R         7/ 6
MICHIGAN CITY     63 66  260/ 17/ 23   N/A           4/ 5

$$
&&




USA.gov is the U.S. government's official web portal to all federal, state and local government web resources and services.